{"data":{"norad_id":62910,"intl_designator":"2025-027D","name":"STARLINK-11569 [DTC]","alt_names":[],"object_type":"PAYLOAD","status":"ACTIVE","operator":null,"country":"US","launch_date":"2025-02-08","launch_site_code":"AFETR","launch_vehicle":null,"mission":null,"orbit_class":"UNKNOWN","rcs_meters":null,"size_class":null,"mass_kg":null,"dimensions":null,"purposes":["comms"],"wikipedia_slug":null,"has_3d_model":false,"image_url":null,"decayed_at":null,"tle_current":{"epoch":"2026-09-21T08:04:55.174080Z","epoch_age_seconds":95988,"freshness":"FRESH","line1":"1 62910U 25027D   26264.33674970  .00172360  00000+0  13163-2 0  9997","line2":"2 62910  43.0000 248.2519 0002141 260.5265  99.5361 15.70889180 93925","mean_motion":15.7088918,"eccentricity":0.0002141,"inclination_deg":43,"raan_deg":248.2519,"arg_perigee_deg":260.5265,"mean_anomaly_deg":99.5361,"bstar":0.0013163,"rev_number":9392,"period_min":91.667828535174,"perigee_km":354.91264496157,"apogee_km":357.7963542217,"semimajor_km":6734.4914995916,"source":"CELESTRAK","updated_at":"2026-09-22T09:00:49.707057Z"}}}